Stündliche Wetter La Campa

Heute, 8 Mai, Samstag

Zeit Temperatur Niederschläge Wind Luftdruck Luftfeuchtigkeit
00:00 +18°C° 0 mm 1 m/S 648 mmHg 96%
01:00 +18°C° 0 mm 1 m/S 648 mmHg 96%
02:00 +16°C° 0 mm 1 m/S 647 mmHg 96%
03:00 +16°C° 0 mm 1 m/S 647 mmHg 95%
04:00 +16°C° 0 mm 1 m/S 647 mmHg 95%
05:00 +16°C° 0 mm 1 m/S 647 mmHg 95%
06:00 +16°C° 0 mm 1 m/S 648 mmHg 95%
07:00 +19°C° 0 mm 1 m/S 648 mmHg 87%
08:00 +21°C° 0 mm 1 m/S 649 mmHg 80%
09:00 +23°C° 0 mm 1 m/S 650 mmHg 72%
10:00 +24°C° 0.2 mm 1 m/S 649 mmHg 66%
11:00 +26°C° 0.2 mm 1 m/S 649 mmHg 59%
12:00 +27°C° 0.2 mm 1 m/S 649 mmHg 53%
13:00 +26°C° 0.4 mm 1 m/S 649 mmHg 58%
14:00 +25°C° 0.4 mm 1 m/S 648 mmHg 64%
15:00 +24°C° 0.4 mm 1 m/S 647 mmHg 69%
16:00 +23°C° 0.7 mm 1 m/S 647 mmHg 75%
17:00 +22°C° 0.7 mm 1 m/S 647 mmHg 81%
18:00 +21°C° 0.7 mm 1 m/S 647 mmHg 86%
19:00 +20°C° 0.3 mm 1 m/S 647 mmHg 89%
20:00 +19°C° 0.3 mm 1 m/S 648 mmHg 91%
21:00 +19°C° 0.3 mm 1 m/S 648 mmHg 94%
22:00 +19°C° 0.2 mm 1 m/S 648 mmHg 93%
23:00 +19°C° 0.2 mm 1 m/S 648 mmHg 93%

Morgen, 9 Mai, Sonntag

Zeit Temperatur Niederschläge Wind Luftdruck Luftfeuchtigkeit
00:00 +19°C° 0.2 mm 1 m/S 648 mmHg 93%
01:00 +19°C° 0 mm 1 m/S 647 mmHg 93%
02:00 +19°C° 0 mm 1 m/S 647 mmHg 92%
03:00 +16°C° 0 mm 0 m/S 646 mmHg 92%
04:00 +16°C° 0 mm 0 m/S 647 mmHg 92%
05:00 +16°C° 0 mm 0 m/S 647 mmHg 91%
06:00 +16°C° 0 mm 0 m/S 647 mmHg 91%
07:00 +18°C° 0 mm 0 m/S 648 mmHg 82%
08:00 +20°C° 0 mm 0 m/S 649 mmHg 74%
09:00 +23°C° 0 mm 0 m/S 650 mmHg 66%
10:00 +26°C° 0 mm 1 m/S 649 mmHg 59%
11:00 +27°C° 0 mm 1 m/S 649 mmHg 52%
12:00 +28°C° 0 mm 1 m/S 649 mmHg 45%
13:00 +27°C° 0.1 mm 1 m/S 648 mmHg 49%
14:00 +27°C° 0.1 mm 1 m/S 648 mmHg 54%
15:00 +26°C° 0.1 mm 1 m/S 647 mmHg 59%
16:00 +23°C° 0.1 mm 0 m/S 647 mmHg 62%
17:00 +22°C° 0.1 mm 0 m/S 647 mmHg 66%
18:00 +21°C° 0.1 mm 0 m/S 647 mmHg 69%
19:00 +20°C° 0 mm 0 m/S 647 mmHg 73%
20:00 +19°C° 0 mm 0 m/S 647 mmHg 77%
21:00 +18°C° 0 mm 0 m/S 647 mmHg 80%
22:00 +17°C° 0 mm 0 m/S 647 mmHg 82%
23:00 +17°C° 0 mm 0 m/S 647 mmHg 83%

übermorgen, 10 Mai, Montag

Zeit Temperatur Niederschläge Wind Luftdruck Luftfeuchtigkeit
00:00 +16°C° 0 mm 0 m/S 647 mmHg 85%
01:00 +16°C° 0 mm 0 m/S 646 mmHg 85%
02:00 +16°C° 0 mm 0 m/S 646 mmHg 85%
03:00 +16°C° 0 mm 0 m/S 646 mmHg 85%
04:00 +16°C° 0 mm 0 m/S 646 mmHg 85%
05:00 +16°C° 0 mm 0 m/S 646 mmHg 85%
06:00 +16°C° 0 mm 0 m/S 647 mmHg 84%
07:00 +18°C° 0 mm 0 m/S 648 mmHg 74%
08:00 +23°C° 0 mm 1 m/S 648 mmHg 63%
09:00 +26°C° 0 mm 1 m/S 649 mmHg 53%
10:00 +27°C° 0 mm 1 m/S 649 mmHg 48%
11:00 +28°C° 0 mm 1 m/S 649 mmHg 42%
12:00 +30°C° 0 mm 2 m/S 649 mmHg 37%
13:00 +29°C° 0 mm 2 m/S 648 mmHg 38%
14:00 +29°C° 0 mm 2 m/S 648 mmHg 39%
15:00 +29°C° 0 mm 1 m/S 647 mmHg 40%
16:00 +27°C° 0 mm 1 m/S 647 mmHg 47%
17:00 +25°C° 0 mm 1 m/S 647 mmHg 54%
18:00 +24°C° 0 mm 1 m/S 647 mmHg 61%
19:00 +23°C° 0 mm 1 m/S 647 mmHg 67%
20:00 +22°C° 0 mm 1 m/S 647 mmHg 73%
21:00 +19°C° 0 mm 0 m/S 647 mmHg 79%
22:00 +20°C° 0 mm 1 m/S 647 mmHg 81%
23:00 +20°C° 0 mm 1 m/S 647 mmHg 84%

11 Mai, Dienstag

Zeit Temperatur Niederschläge Wind Luftdruck Luftfeuchtigkeit
00:00 +19°C° 0 mm 1 m/S 647 mmHg 87%
01:00 +19°C° 0 mm 1 m/S 646 mmHg 88%
02:00 +19°C° 0 mm 1 m/S 646 mmHg 89%
03:00 +19°C° 0 mm 1 m/S 646 mmHg 90%
04:00 +19°C° 0 mm 1 m/S 646 mmHg 90%
05:00 +19°C° 0 mm 1 m/S 646 mmHg 90%
06:00 +19°C° 0 mm 1 m/S 647 mmHg 90%
07:00 +21°C° 0 mm 1 m/S 648 mmHg 77%
08:00 +24°C° 0 mm 1 m/S 648 mmHg 65%
09:00 +26°C° 0 mm 1 m/S 649 mmHg 52%
10:00 +28°C° 0 mm 1 m/S 649 mmHg 46%
11:00 +29°C° 0 mm 1 m/S 649 mmHg 40%
12:00 +31°C° 0 mm 2 m/S 649 mmHg 34%
13:00 +30°C° 0 mm 2 m/S 649 mmHg 34%
14:00 +30°C° 0 mm 2 m/S 648 mmHg 34%
15:00 +30°C° 0 mm 2 m/S 647 mmHg 34%
16:00 +28°C° 0 mm 1 m/S 647 mmHg 42%
17:00 +26°C° 0 mm 1 m/S 647 mmHg 50%
18:00 +24°C° 0 mm 1 m/S 647 mmHg 57%
19:00 +23°C° 0.1 mm 1 m/S 647 mmHg 64%
20:00 +22°C° 0.1 mm 1 m/S 647 mmHg 70%
21:00 +22°C° 0.1 mm 1 m/S 647 mmHg 77%
22:00 +21°C° 0.1 mm 1 m/S 647 mmHg 79%
23:00 +19°C° 0.1 mm 0 m/S 647 mmHg 82%

12 Mai, Mittwoch

Zeit Temperatur Niederschläge Wind Luftdruck Luftfeuchtigkeit
00:00 +18°C° 0.1 mm 0 m/S 647 mmHg 84%
01:00 +18°C° 0.1 mm 0 m/S 647 mmHg 86%
02:00 +17°C° 0.1 mm 0 m/S 646 mmHg 87%
03:00 +17°C° 0.1 mm 0 m/S 646 mmHg 89%
04:00 +17°C° 0 mm 0 m/S 646 mmHg 89%
05:00 +19°C° 0 mm 1 m/S 647 mmHg 90%
06:00 +19°C° 0 mm 1 m/S 647 mmHg 90%
07:00 +21°C° 0 mm 1 m/S 648 mmHg 79%
08:00 +24°C° 0 mm 1 m/S 648 mmHg 68%
09:00 +26°C° 0 mm 1 m/S 649 mmHg 57%
10:00 +27°C° 0.1 mm 1 m/S 649 mmHg 53%
11:00 +28°C° 0.1 mm 1 m/S 649 mmHg 48%
12:00 +29°C° 0.1 mm 2 m/S 649 mmHg 44%
13:00 +28°C° 0.3 mm 1 m/S 648 mmHg 52%
14:00 +26°C° 0.3 mm 1 m/S 647 mmHg 60%
15:00 +24°C° 0.3 mm 1 m/S 647 mmHg 68%
16:00 +24°C° 0.6 mm 1 m/S 647 mmHg 73%
17:00 +23°C° 0.6 mm 1 m/S 646 mmHg 78%
18:00 +22°C° 0.6 mm 1 m/S 646 mmHg 83%
19:00 +21°C° 0.7 mm 1 m/S 647 mmHg 87%
20:00 +20°C° 0.7 mm 1 m/S 647 mmHg 90%
21:00 +20°C° 0.7 mm 1 m/S 647 mmHg 93%
22:00 +19°C° 1.9 mm 1 m/S 647 mmHg 95%
23:00 +19°C° 1.9 mm 1 m/S 647 mmHg 96%

13 Mai, Donnerstag

Zeit Temperatur Niederschläge Wind Luftdruck Luftfeuchtigkeit
00:00 +19°C° 1.9 mm 1 m/S 647 mmHg 97%
01:00 +19°C° 0.6 mm 1 m/S 647 mmHg 97%
02:00 +19°C° 0.6 mm 1 m/S 646 mmHg 96%
03:00 +19°C° 0.6 mm 1 m/S 646 mmHg 96%
04:00 +19°C° 0 mm 1 m/S 646 mmHg 96%
05:00 +19°C° 0 mm 1 m/S 647 mmHg 96%
06:00 +19°C° 0 mm 1 m/S 647 mmHg 95%
07:00 +20°C° 0 mm 1 m/S 648 mmHg 88%
08:00 +22°C° 0 mm 1 m/S 648 mmHg 81%
09:00 +24°C° 0 mm 1 m/S 649 mmHg 73%
10:00 +25°C° 0.4 mm 1 m/S 649 mmHg 67%
11:00 +26°C° 0.4 mm 1 m/S 649 mmHg 61%
12:00 +28°C° 0.4 mm 1 m/S 649 mmHg 55%
13:00 +26°C° 0.9 mm 1 m/S 648 mmHg 61%
14:00 +25°C° 0.9 mm 1 m/S 648 mmHg 67%
15:00 +22°C° 0.9 mm 0 m/S 647 mmHg 73%
16:00 +21°C° 1.1 mm 0 m/S 647 mmHg 78%
17:00 +20°C° 1.1 mm 0 m/S 647 mmHg 82%
18:00 +21°C° 1.1 mm 1 m/S 647 mmHg 87%
19:00 +19°C° 0.8 mm 0 m/S 647 mmHg 89%
20:00 +18°C° 0.8 mm 0 m/S 647 mmHg 91%
21:00 +17°C° 0.8 mm 0 m/S 647 mmHg 93%
22:00 +17°C° 0.3 mm 0 m/S 647 mmHg 94%
23:00 +19°C° 0.3 mm 1 m/S 647 mmHg 95%
Mehr zeigen

Wir brauchen deine Erlaubnis

Meteoprog und unser Service Anbieter werden persönliche Daten aufbewahren, so wie Cookies, Geräte Bezeichnung oder ähnliche Technologien von deinem Gerät und Prozess, so wie Persönliche Daten Inhalte und Werbungen, genauso wie social Media und den Verkehr zu analysieren.

  • Aufbewahrung und/oder Zugang zu deiner Geräte Informationen.

    Cookies, Geräte Bezeichnung oder andere Informationen, können aufbewahrt oder Zugang zu deinem Gerät erhalten, für den Grund, der oben angegeben wird.

  • Personalisierte Werbung und Inhalte, Messungen, Einblick in das Publikum und Produkt Entwicklung.

    Werbungen und Inhalte können personalisiert werden, basierend auf ein Profil. Mehr Daten können besser personalisierte Werbungen und Inhalte hinzufügen. Werbung und Inhalte können gezeigt und gemessen werden. Einblicke über das Publikum, welche die Werbung gesehen haben und den Inhalt, können abgeleitet werden. So wie Daten können genutzt werden, um es zu verbessern oder die Benutzer Erfahrung zu verbessern das System und die Software.

Wenn du “Ich stimme zu” klickst, erlaubst du uns, die Cookies zu benutzen die Geräte Bezeichnung, den Web oder ähnliche Technologien zu benutzen. Deine Settings, können in deinem Gerät bei deinem Browser geändert werden.

Für den bestimmten Zweck, berechtigten Interessen beruhen darauf, mehr als auf den Inhalt. Du kannst mehr darüber in unseren Privaten und Cookie Politik lesen.